Location: Drocourt
(49.0571°N, 1.7669°E)
Time: 16:41:17
(UTC+00:00)

Vanguard 3 - Pass Details

Date: 19 April 2024
Orbit: 509 x 3233 km, 33.3° (Epoch: 23 May)

Event Time Altitude Azimuth Distance (km) Brightness Sun altitude
Rises 06:42:11 0° 250° (WSW) 5,289 10.7 16.8°
Reaches altitude 10° 06:47:07 10° 238° (WSW) 3,749 10.1 17.6°
Maximum altitude 06:53:38 22° 193° (SSW) 2,216 9.4 18.6°
Drops below altitude 10° 06:58:09 10° 143° (SE) 2,488 10.4 19.4°
Sets 07:00:41 0° 127° (SE) 3,156 11.2 19.8°
